Regional Weather Roundup
Issued by NWS

Home | Current Version | Previous Version | Graphics & Text | Print | Product List | Glossary On
Versions: 1 2 3 4 5 6 7 8 9 10 11 12 13 14 15 16 17 18 19 20 21 22 23 24 25 26 27 28 29 30 31 32 33 34 35 36 37 38 39 40 41 42 43 44 45 46 47 48 49 50
070
ASUS45 KCYS 232010
RWRWY

WYOMING REGIONAL WEATHER ROUNDUP
NATIONAL WEATHER SERVICE CHEYENNE WY
200 PM MDT SUN JUL 23 2017

NOTE:  "FAIR" INDICATES FEW OR NO CLOUDS BELOW 12,000 FEET
WITH NO SIGNIFICANT WEATHER AND/OR OBSTRUCTIONS TO VISIBILITY.

WYZ001-232100-
YELLOWSTONE NATIONAL PARK

CITY           SKY/WX    TMP DP  RH WIND       PRES   REMARKS
LK YELLOWSTONE   N/A     72  38  29 CALM      30.36F
W YELLOWSTONE  NOT AVBL

$$
WYZ002>013-054>058-071-098>099-232100-
NORTHERN WYOMING

CITY           SKY/WX    TMP DP  RH WIND       PRES   REMARKS
JACKSON        SUNNY     75  45  33 S6        30.28F
CODY           FAIR      88  33  14 E6        30.10F HAZE
GREYBULL       FAIR      93  31  11 S7        30.00F
WORLAND        FAIR      92  37  14 NW6       30.02F
SHERIDAN       FAIR      93  38  14 VRB3      30.03F
BUFFALO        FAIR      89  34  14 CALM      30.11F
GILLETTE       FAIR      93  39  15 SE10      30.07F
HULETT         FAIR      88  45  22 NE6       30.09F
NEWCASTLE      FAIR      90  36  14 SE7       30.09F

$$
WYZ014>020-022>026-101>103-232100-
CENTRAL WYOMING

CITY           SKY/WX    TMP DP  RH WIND       PRES   REMARKS
BIG PINEY      FAIR      83  32  16 NW21G31   30.30S
PINEDALE       FAIR      81  30  16 NW26G32   30.31F
DUBOIS         FAIR      79  23  12 NW20G26   30.28S
LANDER         FAIR      85  37  18 VRB7      30.14F
RIVERTON       FAIR      87  35  15 VRB5      30.13F
CASPER         FAIR      92  30  11 S7        30.11F
DOUGLAS        FAIR      94  39  14 E6        30.12F HX  90

$$
WYZ021-027>030-104>119-232100-
SOUTHERN WYOMING

CITY           SKY/WX    TMP DP  RH WIND       PRES   REMARKS
EVANSTON       FAIR      86  28  12 N16       30.29F
KEMMERER         N/A    N/A N/A N/A NW14G24   30.31F
FORT BRIDGER   FAIR      85  25  11 NE3       30.30F
ROCK SPRINGS   FAIR      88  15   6 W13G21    30.24F
RAWLINS        FAIR      87  25  10 VRB6      30.24F
SARATOGA       FAIR      86  27  11 NW9       30.27F
LARAMIE        FAIR      81  31  16 NE6       30.29F
CHEYENNE       FAIR      89  43  20 VRB7      30.22F
TORRINGTON     FAIR      91  51  25 SE7       30.08F
PINE BLUFFS    MOCLDY    91  37  15 SW8       30.17F

$$




USA.gov is the U.S. government's official web portal to all federal, state and local government web resources and services.